Weather History for Ft Lauderdale, FL

Change the Weather History Date:

Monday, October 1, 2012

  Actual Average Record
Temperature  
Mean Temperature 82 °F 82 °F  
Max Temperature 87 °F 88 °F 94 °F (1980)
Min Temperature 76 °F 77 °F 55 °F (1920)
Degree Days  
Heating Degree Days 0 0  
Month to date heating degree days 0 0  
Since 1 July heating degree days 0 0  
Cooling Degree Days 17 18  
Month to date cooling degree days 17 18  
Year to date cooling degree days 3731 3730  
Growing Degree Days 30 (Base 50)    
Moisture  
Dew Point 75 °F    
Average Humidity 85    
Maximum Humidity 100    
Minimum Humidity 70    
Precipitation  
Precipitation 2.14 in 0.28 in 5.50 in (1954)
Month to date precipitation 2.14 0.28  
Year to date precipitation 53.06 49.94  
Snow  
Snow 0.00 in - - ()
Month to date snowfall 0.0  
Since 1 July snowfall 0.0  
Since 1 September snowfall 0.0  
Snow Depth 0.00 in    
Sea Level Pressure  
Sea Level Pressure 29.82 in    
Wind  
Wind Speed 6 mph (SSW)    
Max Wind Speed 17 mph    
Max Gust Speed 22 mph    
Visibility 6 miles    
Events Rain , Thunderstorm    
T = Trace of Precipitation, MM = Missing Value Source: NWS Daily Summary

Daily Weather History Graph

Daily Weather History Graph

Search for Another Location

Airport:

Trip Planner

Search our weather history database for the weather conditions in past years. The results will help you decide how hot, cold, wet, or windy it might be!

Date:

Astronomy

Oct. 01, 2012 Rise Set
Actual Time 7:13 AM EDT 7:06 PM EDT
Civil Twilight 6:50 AM EDT 7:29 PM EDT
Nautical Twilight 6:23 AM EDT 7:56 PM EDT
Astronomical Twilight 5:56 AM EDT 8:23 PM EDT
Moon 7:58 PM EDT (10/1) 8:27 AM EDT (10/1)
Length of Visible Light 12h 39m
Length of Day
11h 53m
Full, 98% of the Moon is Illuminated
Oct 1
Full
Oct 8
Last Quarter
Oct 15
New
Oct 21
First Quarter
Oct 29
Full

Hourly Weather History & Observations

Time (EDT) Temp. Heat Index Dew Point Humidity Pressure Visibility Wind Dir Wind Speed Gust Speed Precip Events Conditions
12:53 AM 80.1 °F 85.1 °F 75.0 °F 85% 29.84 in 10.0 mi SE 11.5 mph - N/A   Scattered Clouds
1:53 AM 81.0 °F 85.8 °F 73.0 °F 77% 29.83 in 10.0 mi SE 8.1 mph - N/A   Partly Cloudy
2:53 AM 81.0 °F 86.2 °F 73.9 °F 79% 29.81 in 10.0 mi SSE 8.1 mph - N/A   Partly Cloudy
3:53 AM 81.0 °F 86.7 °F 75.0 °F 82% 29.79 in 10.0 mi South 6.9 mph - N/A   Scattered Clouds
4:53 AM 80.1 °F 85.1 °F 75.0 °F 85% 29.78 in 10.0 mi Calm Calm - N/A   Mostly Cloudy
5:53 AM 79.0 °F - 75.0 °F 88% 29.79 in 10.0 mi ESE 3.5 mph - N/A   Scattered Clouds
6:53 AM 80.1 °F 84.5 °F 73.9 °F 81% 29.79 in 10.0 mi South 4.6 mph - N/A   Partly Cloudy
7:39 AM 80.6 °F 85.4 °F 73.4 °F 79% 29.80 in 10.0 mi SSW 4.6 mph - N/A   Mostly Cloudy
7:53 AM 80.1 °F 85.1 °F 75.0 °F 85% 29.81 in 10.0 mi SSW 5.8 mph - N/A   Overcast
8:53 AM 79.0 °F - 77.0 °F 94% 29.83 in 8.0 mi South 4.6 mph - 0.09 in Rain Light Rain
9:53 AM 84.0 °F 92.6 °F 75.9 °F 76% 29.84 in 10.0 mi SW 12.7 mph - 0.00 in   Mostly Cloudy
10:36 AM 84.2 °F 90.9 °F 73.4 °F 70% 29.84 in 10.0 mi SSW 10.4 mph 18.4 mph N/A   Mostly Cloudy
10:53 AM 84.0 °F 91.9 °F 75.0 °F 74% 29.84 in 10.0 mi SSW 10.4 mph - N/A   Mostly Cloudy
11:11 AM 82.4 °F 88.2 °F 73.4 °F 74% 29.85 in 10.0 mi SSW 15.0 mph 20.7 mph N/A   Mostly Cloudy
11:53 AM 84.0 °F 90.2 °F 73.0 °F 69% 29.85 in 10.0 mi South 10.4 mph 19.6 mph N/A   Mostly Cloudy
12:53 PM 80.1 °F 85.1 °F 75.0 °F 85% 29.84 in 8.0 mi WSW 8.1 mph - N/A Rain Light Rain
1:53 PM 84.0 °F 91.9 °F 75.0 °F 74% 29.82 in 10.0 mi SW 9.2 mph - 0.00 in   Scattered Clouds
2:01 PM 82.4 °F 89.5 °F 75.2 °F 79% 29.82 in 10.0 mi SW 5.8 mph - N/A   Mostly Cloudy
2:35 PM 78.8 °F - 73.4 °F 83% 29.82 in 4.0 mi SSW 8.1 mph 18.4 mph 0.01 in Rain Rain
2:53 PM 78.1 °F - 73.9 °F 87% 29.81 in 10.0 mi SW 4.6 mph - 0.02 in Rain Light Rain
3:44 PM 78.8 °F - 75.2 °F 89% 29.80 in 2.0 mi SW 9.2 mph - 0.04 in Rain Light Rain
3:53 PM 78.1 °F - 75.0 °F 90% 29.81 in 3.0 mi SSW 9.2 mph - 0.05 in Rain Light Rain
3:57 PM 78.8 °F - 75.2 °F 89% 29.81 in 1.5 mi SSW 10.4 mph - 0.11 in Rain Light Rain
3:59 PM 77.0 °F - 75.2 °F 94% 29.81 in 0.8 mi SW 8.1 mph - 0.18 in Rain Light Rain
4:01 PM 77.0 °F - 75.2 °F 94% 29.80 in 1.0 mi SW 6.9 mph - 0.21 in Rain Heavy Rain
4:09 PM 75.2 °F - 73.4 °F 94% 29.79 in 2.5 mi West 3.5 mph - 0.32 in Rain Rain
4:11 PM 77.0 °F - 73.4 °F 89% 29.79 in 3.0 mi West 3.5 mph - 0.32 in Rain Light Rain
4:32 PM 77.0 °F - 75.2 °F 94% 29.81 in 1.5 mi SSE 5.8 mph - 0.38 in Rain Rain
4:39 PM 77.0 °F - 75.2 °F 94% 29.81 in 0.8 mi SSE 8.1 mph - 0.54 in Rain , Thunderstorm Heavy Thunderstorms and Rain
4:42 PM 77.0 °F - 75.2 °F 94% 29.81 in 0.8 mi SE 8.1 mph - 0.61 in Rain , Thunderstorm Heavy Thunderstorms and Rain
4:46 PM 75.2 °F - 75.2 °F 100% 29.80 in 1.0 mi Variable 4.6 mph - 0.66 in Rain , Thunderstorm Heavy Thunderstorms and Rain
4:53 PM 77.0 °F - 75.0 °F 94% 29.80 in 5.0 mi Calm Calm - 0.67 in Rain , Thunderstorm Light Thunderstorms and Rain
5:05 PM 78.8 °F - 75.2 °F 89% 29.80 in 10.0 mi Calm Calm - 0.00 in   Mostly Cloudy
5:11 PM 78.8 °F - 75.2 °F 89% 29.81 in 2.0 mi South 5.8 mph - 0.13 in Rain Rain
5:13 PM 77.0 °F - 75.2 °F 94% 29.81 in 0.8 mi SSW 5.8 mph - 0.20 in Rain Rain
5:15 PM 77.0 °F - 75.2 °F 94% 29.81 in 1.0 mi SW 8.1 mph - 0.25 in Rain Rain
5:30 PM 77.0 °F - 75.2 °F 94% 29.80 in 5.0 mi Calm Calm - 0.41 in Rain Rain
5:44 PM 77.0 °F - 75.2 °F 94% 29.80 in 3.0 mi Calm Calm - 0.46 in Rain Rain
5:53 PM 77.0 °F - 75.0 °F 94% 29.81 in 3.0 mi Calm Calm - 0.56 in Rain Rain
6:03 PM 77.0 °F - 75.2 °F 94% 29.81 in 5.0 mi Calm Calm - N/A Rain Light Rain
6:12 PM 77.0 °F - 75.2 °F 94% 29.81 in 7.0 mi Variable 4.6 mph - N/A Rain Light Rain
6:32 PM 77.0 °F - 75.2 °F 94% 29.81 in 2.0 mi ESE 5.8 mph - N/A Rain Heavy Rain
6:36 PM 77.0 °F - 75.2 °F 94% 29.81 in 2.0 mi SE 3.5 mph - N/A Rain Heavy Rain
6:38 PM 77.0 °F - 75.2 °F 94% 29.81 in 3.0 mi Variable 3.5 mph - N/A Rain Rain
6:41 PM 77.0 °F - 75.2 °F 94% 29.81 in 1.5 mi Calm Calm - N/A Rain Rain
6:46 PM 77.0 °F - 75.2 °F 94% 29.81 in 3.0 mi Calm Calm - N/A Rain Rain
6:53 PM 77.0 °F - 75.0 °F 94% 29.82 in 5.0 mi Variable 3.5 mph - N/A Rain Light Rain
7:05 PM 77.0 °F - 75.2 °F 94% 29.82 in 5.0 mi Calm Calm - 0.03 in Rain Light Rain
7:53 PM 77.0 °F - 75.0 °F 94% 29.84 in 10.0 mi NW 5.8 mph - 0.03 in   Scattered Clouds
8:20 PM 77.0 °F - 73.4 °F 89% 29.84 in 10.0 mi NNW 5.8 mph - N/A   Mostly Cloudy
8:28 PM 75.2 °F - 73.4 °F 94% 29.85 in 2.0 mi NNE 3.5 mph - 0.15 in Rain Heavy Rain
8:34 PM 75.2 °F - 73.4 °F 94% 29.84 in 3.0 mi NNE 9.2 mph - 0.29 in Rain Rain
8:46 PM 75.2 °F - 73.4 °F 94% 29.85 in 10.0 mi North 6.9 mph - 0.29 in Rain Light Rain
8:53 PM 75.9 °F - 75.0 °F 97% 29.86 in 10.0 mi ESE 6.9 mph - 0.29 in   Overcast
9:03 PM 77.0 °F - 75.2 °F 94% 29.86 in 2.5 mi East 5.8 mph - 0.14 in Rain Heavy Rain
9:08 PM 75.2 °F - 75.2 °F 100% 29.86 in 3.0 mi Calm Calm - 0.17 in Rain Heavy Rain
9:53 PM 77.0 °F - 73.9 °F 90% 29.86 in 6.0 mi SW 4.6 mph - 0.21 in Rain Light Rain
10:25 PM 77.0 °F - 73.4 °F 89% 29.88 in 10.0 mi West 3.5 mph - 0.00 in   Mostly Cloudy
10:53 PM 77.0 °F - 75.0 °F 94% 29.89 in 10.0 mi SW 3.5 mph - 0.00 in   Scattered Clouds
11:53 PM 77.0 °F - 75.0 °F 94% 29.88 in 10.0 mi Calm Calm - 0.00 in   Scattered Clouds